Flag for Germany Weather past 2 weeks in Erkelenz, North Rhine-Westphalia, Germany

Now
61 °F

Rain. Fog.


Feels Like: 61 °F
Forecast: 53 / 65 °F
Wind: 8 mph from Northwest

Location: Monchengladbach Airport

Current Time: Sep 1, 2015 at 8:39:46 AM

Latest Report: Sep 1, 2015 at 8:20 AM


Visibility: 2 mi

Pressure: 29.83 "Hg

Humidity: 100%

Dew point: 61 °F

Location of ErkelenzLocation

Historic Weather in Erkelenz — Graph

°F

Erkelenz temperature yesterday

Maximum temperature yesterday: 88 °F (at 2:20 PM)
Minimum temperature yesterday: 66 °F (at 7:50 AM)
Average temperature yesterday: 81 °F

Past Weeks' High & Low Weather Summary

 TemperatureHumidityPressure
High90 °F (Aug 30, 3:20 PM)100% (Aug 16, 8:20 PM)30.24 "Hg (Aug 16, 8:20 PM)
Low54 °F (Aug 19, 7:50 AM)33% (Aug 31, 4:50 PM)29.50 "Hg (Aug 24, 4:20 PM)
Average69 °F69%29.96 "Hg
* Reported Aug 16 8:20 PM — Aug 31 8:20 PM, Erkelenz, Weather by CustomWeather, © 2015

Note: Actual official high and low records may vary slightly from our data, if they occured in-between our weather recording intervals... More about our weather records

Advertising

Erkelenz weather history for previous 24 hours

 ConditionsComfort  
Time TempWeatherWind HumidityBarometerVisibility
8:20 PM
Mon, Aug 31
72 °FClear.13 mph78%29.80 "Hg10 mi
7:50 PM75 °FClear.14 mph65%29.80 "Hg10 mi
7:20 PM77 °FPassing clouds.14 mph57%29.77 "HgN/A
6:50 PM84 °FPassing clouds.5 mph51%29.77 "HgN/A
6:20 PM84 °FPassing clouds.9 mph48%29.77 "HgN/A
5:50 PM88 °FPassing clouds.10 mph35%29.74 "HgN/A
5:20 PM88 °FPassing clouds.12 mph33%29.74 "HgN/A
4:50 PM88 °FPassing clouds.10 mph33%29.77 "HgN/A
4:20 PM88 °FPassing clouds.13 mph38%29.74 "HgN/A
3:50 PM88 °FPassing clouds.10 mph38%29.77 "HgN/A
3:20 PM88 °FPassing clouds.9 mph43%29.77 "HgN/A
2:50 PM88 °FClear.8 mph43%29.77 "Hg10 mi
2:20 PM88 °FClear.7 mph43%29.77 "Hg10 mi
1:50 PM86 °FClear.7 mph49%29.80 "Hg10 mi
1:20 PM86 °FPassing clouds.6 mph49%29.80 "HgN/A
12:50 PM84 °FClear.6 mph48%29.80 "Hg10 mi
12:20 PM82 °FPassing clouds.5 mph55%29.80 "HgN/A
11:50 AM82 °FPassing clouds.6 mph58%29.83 "HgN/A
11:20 AM81 °FPassing clouds.6 mph62%29.83 "HgN/A
10:50 AM79 °FSunny.3 mph65%29.83 "Hg10 mi
10:20 AM77 °FSunny.3 mph74%29.86 "Hg10 mi
9:50 AM75 °FPassing clouds.5 mph78%29.86 "HgN/A
9:20 AM73 °FPassing clouds.5 mph89%29.86 "HgN/A
8:50 AM72 °FSunny.6 mph94%29.86 "Hg10 mi
8:20 AM68 °FSunny.5 mph94%29.86 "Hg10 mi
Weather by CustomWeather, © 2015

See weather overviewHow to use our weather pages